contact:dominique.lefevre@mio.osupytheas.fr, maurice.libes@osupytheas.fr, didier.mallarino@osupytheas.fr
Project:EMSO http://www.emso-fr.org/EMSO-France
Depth: 2436.0 m
Title:EMSO Ligure Ouest : Data MII capteur AQUADOPP
Date,Latitude,Longitude,X_East,Y_North,Z_Up,Amplitude_X,Amplitude_Y,Amplitude_Z,Batterie,SoundSpeed,Heading,Pitch,Roll,Pressure,TIS,Speed,Direction
, degrees North, degrees East, m.s-1, m.s-1,m.s-1, 1, 1, 1, Volt, m.s-1, degree, degree, degree, dbar, degree_C, m.s-1, degree
2023-01-06T00:04:03,42.805,6.029,-0.016,0.022,-0.001,102.0,101.0,102.0,13.3,1505.2,329.2,-0.8,1.8,2471.113,13.29,0.027,324.0
2023-01-06T00:07:03,42.805,6.029,-0.025,-0.002,0.0,99.0,101.0,101.0,13.4,1505.2,319.6,-0.8,1.8,2471.135,13.29,0.025,265.4
2023-01-06T00:10:03,42.805,6.029,-0.064,0.014,0.008,100.0,102.0,101.0,13.4,1505.2,316.0,-0.8,1.8,2471.082,13.29,0.065,282.3
2023-01-06T00:13:03,42.805,6.029,-0.034,0.0,-0.012,102.0,101.0,101.0,13.4,1505.2,323.2,-0.8,1.8,2471.074,13.29,0.034,270.0
2023-01-06T00:16:03,42.805,6.029,-0.034,0.011,-0.018,102.0,101.0,101.0,13.4,1505.2,331.8,-0.7,1.8,2471.05,13.29,0.035,287.9
2023-01-06T00:19:03,42.805,6.029,-0.024,0.006,-0.005,102.0,102.0,101.0,13.4,1505.2,337.2,-0.8,1.8,2471.057,13.29,0.024,284.0
2023-01-06T00:22:03,42.805,6.029,-0.008,0.005,-0.007,101.0,102.0,101.0,13.4,1505.2,321.5,-0.8,1.8,2471.037,13.29,0.009,302.0
2023-01-06T00:25:03,42.805,6.029,-0.046,0.017,-0.013,101.0,102.0,101.0,13.4,1505.2,337.0,-0.8,1.8,2471.038,13.29,0.049,290.3
2023-01-06T00:28:03,42.805,6.029,-0.039,0.037,0.01,101.0,100.0,102.0,13.4,1505.2,326.3,-0.8,1.8,2471.04,13.29,0.053,313.5
2023-01-06T00:31:03,42.805,6.029,-0.041,0.017,0.008,102.0,101.0,101.0,13.4,1505.2,330.3,-0.8,1.8,2471.056,13.29,0.044,292.5
2023-01-06T00:34:03,42.805,6.029,-0.034,-0.002,-0.022,101.0,102.0,101.0,13.3,1505.2,333.4,-0.8,1.8,2471.042,13.29,0.034,266.6
2023-01-06T00:37:03,42.805,6.029,-0.025,0.009,-0.019,101.0,101.0,101.0,13.4,1505.2,336.3,-0.8,1.8,2471.026,13.29,0.026,289.8
2023-01-06T00:40:03,42.805,6.029,-0.009,-0.016,-0.035,102.0,102.0,101.0,13.4,1505.2,321.4,-0.8,1.8,2471.061,13.29,0.018,209.4
2023-01-06T00:43:03,42.805,6.029,-0.021,0.001,0.011,102.0,102.0,101.0,13.3,1505.2,326.7,-0.8,1.8,2471.083,13.29,0.021,272.7
2023-01-06T00:46:03,42.805,6.029,-0.031,-0.014,-0.006,101.0,102.0,102.0,13.3,1505.2,320.6,-0.8,1.8,2470.991,13.29,0.034,245.7
2023-01-06T00:49:03,42.805,6.029,-0.025,-0.016,-0.008,100.0,101.0,101.0,13.4,1505.2,322.5,-0.8,1.8,2471.015,13.29,0.029,237.4
2023-01-06T00:52:03,42.805,6.029,-0.022,0.012,-0.01,102.0,101.0,101.0,13.4,1505.2,334.5,-0.8,1.9,2471.045,13.29,0.025,298.6
2023-01-06T00:55:03,42.805,6.029,-0.024,-0.009,-0.026,102.0,102.0,101.0,13.4,1505.2,326.3,-0.7,1.8,2471.063,13.29,0.025,249.4
2023-01-06T00:58:03,42.805,6.029,-0.031,-0.007,-0.024,102.0,101.0,102.0,13.3,1505.2,322.9,-0.8,1.8,2471.029,13.29,0.031,257.3
2023-01-06T01:04:03,42.805,6.029,-0.045,0.049,0.002,101.0,104.0,104.0,13.3,1505.2,331.1,-0.7,1.8,2471.06,13.29,0.066,317.4
2023-01-06T01:07:03,42.805,6.029,-0.028,0.015,0.023,102.0,102.0,101.0,13.4,1505.2,324.7,-0.7,1.8,2471.104,13.29,0.031,298.2
2023-01-06T01:10:03,42.805,6.029,-0.052,0.008,-0.011,101.0,101.0,102.0,13.4,1505.2,319.4,-0.8,1.8,2471.072,13.29,0.052,278.7
2023-01-06T01:13:03,42.805,6.029,0.0,-0.006,0.015,102.0,101.0,101.0,13.4,1505.2,330.6,-0.7,1.8,2471.058,13.29,0.006,180.0
2023-01-06T01:16:03,42.805,6.029,-0.036,0.02,-0.022,103.0,99.0,101.0,13.4,1505.2,335.3,-0.7,1.8,2471.052,13.29,0.041,299.1
2023-01-06T01:19:03,42.805,6.029,-0.049,0.024,-0.002,102.0,99.0,101.0,13.4,1505.2,320.1,-0.7,1.8,2471.047,13.29,0.054,296.1
2023-01-06T01:22:03,42.805,6.029,-0.014,0.0,-0.019,101.0,101.0,102.0,13.4,1505.2,318.7,-0.7,1.8,2471.022,13.29,0.014,270.0
2023-01-06T01:25:03,42.805,6.029,-0.023,0.001,-0.011,100.0,100.0,102.0,13.4,1505.2,335.0,-0.8,1.8,2471.061,13.29,0.023,272.5
2023-01-06T01:28:03,42.805,6.029,-0.021,-0.006,-0.019,102.0,102.0,101.0,13.3,1505.2,318.9,-0.8,1.8,2471.025,13.29,0.021,254.1
2023-01-06T01:31:03,42.805,6.029,-0.011,-0.019,-0.043,103.0,99.0,102.0,13.3,1505.2,318.3,-0.7,1.8,2471.118,13.29,0.021,210.1
2023-01-06T01:34:03,42.805,6.029,-0.024,0.0,0.009,101.0,100.0,101.0,13.4,1505.2,323.8,-0.7,1.8,2471.054,13.29,0.024,270.0
2023-01-06T01:37:03,42.805,6.029,-0.019,0.017,0.001,102.0,101.0,101.0,13.4,1505.2,331.3,-0.7,1.8,2471.037,13.29,0.025,311.8
2023-01-06T01:40:03,42.805,6.029,-0.046,0.004,-0.014,101.0,101.0,102.0,13.4,1505.2,324.1,-0.8,1.8,2471.058,13.29,0.046,275.0
2023-01-06T01:43:03,42.805,6.029,-0.022,-0.008,-0.031,101.0,102.0,102.0,13.4,1505.2,320.9,-0.8,1.8,2471.074,13.29,0.023,250.0
2023-01-06T01:46:03,42.805,6.029,-0.021,-0.011,-0.029,102.0,101.0,101.0,13.3,1505.2,316.5,-0.7,1.9,2471.05,13.29,0.023,242.4
2023-01-06T01:49:03,42.805,6.029,-0.019,0.0,0.0,100.0,101.0,101.0,13.3,1505.2,322.5,-0.8,1.8,2471.06,13.29,0.019,270.0
2023-01-06T01:52:03,42.805,6.029,-0.042,-0.004,-0.005,102.0,101.0,102.0,13.3,1505.2,330.6,-0.8,1.8,2471.054,13.29,0.042,264.6
2023-01-06T01:55:03,42.805,6.029,-0.034,0.007,-0.001,103.0,103.0,100.0,13.4,1505.2,316.0,-0.7,1.8,2471.068,13.29,0.034,281.6
2023-01-06T01:58:03,42.805,6.029,-0.023,-0.019,-0.019,101.0,102.0,101.0,13.3,1505.2,322.6,-0.8,1.9,2471.078,13.29,0.029,230.4
2023-01-06T02:04:03,42.805,6.029,-0.03,0.015,-0.005,101.0,102.0,101.0,13.4,1505.2,329.4,-0.7,1.8,2471.106,13.29,0.033,296.6
2023-01-06T02:07:03,42.805,6.029,-0.012,-0.012,-0.023,102.0,100.0,101.0,13.3,1505.2,331.1,-0.8,1.8,2471.113,13.29,0.016,225.0
2023-01-06T02:10:03,42.805,6.029,-0.013,0.005,0.013,100.0,101.0,103.0,13.3,1505.2,330.8,-0.7,1.8,2471.088,13.29,0.013,291.0
2023-01-06T02:13:03,42.805,6.029,-0.041,0.0,-0.002,101.0,101.0,102.0,13.4,1505.2,331.9,-0.8,1.8,2471.088,13.29,0.041,270.0
2023-01-06T02:16:03,42.805,6.029,-0.037,0.01,0.005,100.0,102.0,101.0,13.4,1505.2,320.4,-0.7,1.8,2471.104,13.29,0.038,285.1
2023-01-06T02:19:03,42.805,6.029,-0.039,-0.006,-0.023,100.0,101.0,101.0,13.4,1505.2,323.4,-0.7,1.8,2471.064,13.29,0.039,261.3
2023-01-06T02:22:03,42.805,6.029,-0.028,0.021,0.027,100.0,101.0,101.0,13.4,1505.2,331.3,-0.8,1.8,2471.073,13.29,0.035,306.9
2023-01-06T02:25:03,42.805,6.029,-0.012,0.005,0.005,99.0,103.0,101.0,13.4,1505.2,318.0,-0.8,1.8,2471.088,13.29,0.013,292.6
2023-01-06T02:28:03,42.805,6.029,-0.025,0.014,0.003,102.0,100.0,101.0,13.4,1505.2,324.3,-0.8,1.8,2471.061,13.29,0.028,299.3
2023-01-06T02:31:03,42.805,6.029,-0.02,-0.022,-0.048,102.0,102.0,101.0,13.4,1505.2,329.6,-0.7,1.8,2471.1,13.29,0.029,222.3
2023-01-06T02:34:03,42.805,6.029,-0.024,0.017,0.004,99.0,101.0,102.0,13.4,1505.2,325.5,-0.8,1.8,2471.112,13.29,0.029,305.3
2023-01-06T02:37:03,42.805,6.029,-0.022,0.002,-0.016,102.0,101.0,101.0,13.4,1505.2,329.4,-0.8,1.8,2471.077,13.29,0.022,275.2
2023-01-06T02:40:03,42.805,6.029,-0.015,0.0,-0.025,101.0,100.0,103.0,13.4,1505.2,329.1,-0.8,1.8,2471.059,13.29,0.015,270.0
2023-01-06T02:43:03,42.805,6.029,-0.036,0.013,-0.03,99.0,104.0,102.0,13.4,1505.2,330.5,-0.7,1.8,2471.104,13.29,0.038,289.9
2023-01-06T02:46:03,42.805,6.029,-0.021,-0.019,-0.014,101.0,99.0,102.0,13.4,1505.2,318.9,-0.8,1.8,2471.087,13.29,0.028,227.9
2023-01-06T02:49:03,42.805,6.029,-0.029,0.027,0.0,102.0,100.0,102.0,13.4,1505.2,317.5,-0.8,1.8,2471.088,13.29,0.039,313.0
2023-01-06T02:52:03,42.805,6.029,-0.044,0.025,0.01,103.0,102.0,100.0,13.3,1505.2,319.4,-0.7,1.8,2471.062,13.29,0.05,299.6
2023-01-06T02:55:03,42.805,6.029,-0.028,0.0,-0.016,101.0,100.0,101.0,13.4,1505.2,322.8,-0.8,1.8,2471.09,13.29,0.028,270.0
2023-01-06T02:58:03,42.805,6.029,-0.031,0.017,-0.01,102.0,102.0,101.0,13.4,1505.2,330.2,-0.7,1.8,2471.082,13.29,0.035,298.7
2023-01-06T03:04:03,42.805,6.029,-0.034,0.005,0.003,101.0,101.0,101.0,13.4,1505.2,335.8,-0.8,1.8,2471.145,13.29,0.034,278.4
2023-01-06T03:07:03,42.805,6.029,-0.015,0.006,0.025,102.0,100.0,101.0,13.4,1505.2,321.3,-0.8,1.9,2471.128,13.29,0.016,291.8
2023-01-06T03:10:03,42.805,6.029,-0.038,-0.007,-0.028,101.0,103.0,102.0,13.4,1505.2,325.8,-0.7,1.8,2471.176,13.29,0.038,259.6
2023-01-06T03:13:03,42.805,6.029,-0.03,-0.004,0.005,103.0,101.0,100.0,13.4,1505.2,317.5,-0.8,1.8,2471.135,13.29,0.03,262.4
2023-01-06T03:16:03,42.805,6.029,-0.004,-0.014,-0.017,101.0,101.0,102.0,13.4,1505.2,318.4,-0.7,1.8,2471.152,13.29,0.014,195.9
2023-01-06T03:19:03,42.805,6.029,-0.026,0.008,0.013,101.0,101.0,102.0,13.4,1505.2,319.4,-0.7,1.8,2471.1,13.29,0.027,287.1
2023-01-06T03:22:03,42.805,6.029,-0.03,-0.001,-0.029,102.0,101.0,101.0,13.3,1505.2,327.8,-0.8,1.8,2471.114,13.29,0.03,268.1
2023-01-06T03:25:03,42.805,6.029,-0.041,-0.018,-0.045,102.0,102.0,101.0,13.4,1505.2,326.5,-0.8,1.8,2471.103,13.29,0.044,246.3
2023-01-06T03:28:03,42.805,6.029,-0.023,0.014,-0.001,101.0,102.0,101.0,13.3,1505.2,329.7,-0.8,1.8,2471.157,13.29,0.026,301.3
2023-01-06T03:31:03,42.805,6.029,-0.036,0.021,0.01,102.0,102.0,101.0,13.4,1505.2,332.7,-0.8,1.8,2471.134,13.29,0.041,300.3
2023-01-06T03:34:03,42.805,6.029,-0.027,-0.003,-0.017,100.0,101.0,101.0,13.3,1505.2,334.1,-0.8,1.8,2471.129,13.29,0.027,263.7
2023-01-06T03:37:03,42.805,6.029,-0.018,0.026,0.021,103.0,100.0,101.0,13.4,1505.2,329.9,-0.8,1.8,2471.119,13.29,0.031,325.3
2023-01-06T03:40:03,42.805,6.029,-0.026,-0.005,-0.029,102.0,101.0,101.0,13.4,1505.2,319.6,-0.8,1.8,2471.134,13.29,0.026,259.1
2023-01-06T03:43:03,42.805,6.029,-0.026,0.007,0.007,100.0,102.0,102.0,13.4,1505.2,328.6,-0.7,1.8,2471.122,13.29,0.026,285.1
2023-01-06T03:46:03,42.805,6.029,-0.036,0.008,-0.023,101.0,103.0,101.0,13.4,1505.2,329.9,-0.8,1.8,2471.132,13.29,0.036,282.5
2023-01-06T03:49:03,42.805,6.029,-0.013,0.0,0.02,103.0,101.0,101.0,13.4,1505.2,328.7,-0.8,1.8,2471.13,13.29,0.013,270.0
2023-01-06T03:52:03,42.805,6.029,-0.024,0.005,-0.034,100.0,103.0,101.0,13.3,1505.2,326.3,-0.8,1.8,2471.126,13.29,0.024,281.8
2023-01-06T03:55:03,42.805,6.029,-0.026,0.004,0.004,102.0,101.0,101.0,13.3,1505.2,315.0,-0.8,1.8,2471.121,13.29,0.026,278.7
2023-01-06T03:58:03,42.805,6.029,-0.029,0.002,0.007,102.0,101.0,101.0,13.4,1505.2,319.4,-0.7,1.8,2471.184,13.29,0.029,273.9
2023-01-06T04:04:03,42.805,6.029,-0.017,-0.007,0.004,102.0,102.0,100.0,13.4,1505.2,324.4,-0.8,1.8,2471.221,13.29,0.018,247.6
2023-01-06T04:07:03,42.805,6.029,-0.028,0.005,-0.001,102.0,100.0,102.0,13.3,1505.2,319.0,-0.8,1.8,2471.161,13.29,0.028,280.1
2023-01-06T04:10:03,42.805,6.029,-0.018,-0.01,-0.039,100.0,101.0,101.0,13.4,1505.2,321.9,-0.8,1.8,2471.197,13.29,0.02,240.9
2023-01-06T04:13:03,42.805,6.029,-0.032,0.005,-0.028,102.0,102.0,102.0,13.4,1505.2,338.2,-0.8,1.8,2471.193,13.29,0.032,278.9
2023-01-06T04:16:03,42.805,6.029,-0.02,0.006,0.0,101.0,101.0,102.0,13.4,1505.2,318.0,-0.7,1.8,2471.212,13.29,0.02,286.7
2023-01-06T04:19:03,42.805,6.029,-0.03,0.0,-0.017,103.0,100.0,101.0,13.4,1505.2,326.7,-0.8,1.8,2471.2,13.29,0.03,270.0
2023-01-06T04:22:03,42.805,6.029,-0.014,-0.014,-0.017,101.0,101.0,101.0,13.3,1505.2,318.1,-0.8,1.8,2471.199,13.29,0.019,225.0
2023-01-06T04:25:03,42.805,6.029,-0.038,0.016,0.024,102.0,102.0,102.0,13.3,1505.2,317.0,-0.8,1.8,2471.188,13.29,0.041,292.8
2023-01-06T04:28:03,42.805,6.029,-0.026,0.0,-0.004,100.0,102.0,101.0,13.4,1505.2,329.3,-0.7,1.8,2471.195,13.29,0.026,270.0
2023-01-06T04:31:03,42.805,6.029,-0.026,0.001,-0.033,101.0,101.0,100.0,13.3,1505.2,318.9,-0.8,1.8,2471.189,13.29,0.026,272.2
2023-01-06T04:34:03,42.805,6.029,-0.001,-0.013,-0.025,100.0,101.0,101.0,13.4,1505.2,332.6,-0.7,1.8,2471.215,13.29,0.013,184.4
2023-01-06T04:37:03,42.805,6.029,-0.043,0.023,0.003,101.0,101.0,102.0,13.4,1505.2,332.2,-0.8,1.8,2471.202,13.29,0.048,298.1
2023-01-06T04:40:03,42.805,6.029,-0.013,0.013,-0.007,102.0,101.0,101.0,13.4,1505.2,330.9,-0.8,1.8,2471.205,13.29,0.018,315.0
2023-01-06T04:43:03,42.805,6.029,-0.035,0.005,-0.008,102.0,101.0,101.0,13.4,1505.2,322.7,-0.8,1.8,2471.218,13.29,0.035,278.1
2023-01-06T04:46:03,42.805,6.029,-0.015,0.017,0.001,101.0,100.0,102.0,13.4,1505.2,331.8,-0.8,1.8,2471.241,13.29,0.022,318.6
2023-01-06T04:49:03,42.805,6.029,-0.008,-0.009,-0.013,101.0,100.0,101.0,13.4,1505.2,329.7,-0.7,1.8,2471.199,13.29,0.012,221.6
2023-01-06T04:52:03,42.805,6.029,-0.017,0.008,0.014,101.0,102.0,100.0,13.4,1505.2,323.4,-0.8,1.8,2471.197,13.29,0.018,295.2
2023-01-06T04:55:03,42.805,6.029,-0.046,-0.011,-0.01,100.0,101.0,101.0,13.3,1505.2,318.6,-0.8,1.8,2471.211,13.29,0.047,256.6
2023-01-06T04:58:03,42.805,6.029,-0.009,-0.008,-0.022,101.0,102.0,101.0,13.4,1505.2,321.3,-0.8,1.8,2471.217,13.29,0.012,228.4
2023-01-06T05:04:03,42.805,6.029,-0.03,0.01,0.002,101.0,101.0,102.0,13.4,1505.2,323.1,-0.7,1.8,2471.28,13.29,0.031,288.4
2023-01-06T05:07:03,42.805,6.029,-0.026,0.012,-0.009,101.0,100.0,102.0,13.4,1505.2,331.5,-0.7,1.8,2471.258,13.29,0.028,294.8
2023-01-06T05:10:03,42.805,6.029,-0.007,0.0,0.001,102.0,102.0,101.0,13.4,1505.2,331.9,-0.8,1.8,2471.276,13.29,0.007,270.0
2023-01-06T05:13:03,42.805,6.029,-0.026,0.017,-0.025,100.0,101.0,102.0,13.4,1505.2,322.4,-0.8,1.8,2471.304,13.29,0.031,303.2
2023-01-06T05:16:03,42.805,6.029,-0.018,0.0,0.017,101.0,103.0,100.0,13.3,1505.2,320.4,-0.8,1.8,2471.273,13.29,0.018,270.0
2023-01-06T05:19:03,42.805,6.029,-0.046,0.003,-0.013,100.0,100.0,103.0,13.4,1505.2,317.5,-0.8,1.8,2471.227,13.29,0.046,273.7
2023-01-06T05:22:03,42.805,6.029,-0.028,0.01,-0.022,101.0,102.0,102.0,13.4,1505.2,321.4,-0.8,1.8,2471.26,13.29,0.029,289.6
2023-01-06T05:25:02,42.805,6.029,-0.016,0.004,-0.001,100.0,102.0,102.0,13.4,1505.2,335.0,-0.7,1.8,2471.278,13.29,0.016,284.0
2023-01-06T05:28:03,42.805,6.029,-0.031,0.006,-0.024,102.0,101.0,102.0,13.4,1505.2,327.0,-0.8,1.8,2471.255,13.29,0.031,281.0
2023-01-06T05:31:03,42.805,6.029,-0.031,0.009,-0.017,101.0,100.0,101.0,13.4,1505.2,321.4,-0.8,1.8,2471.248,13.29,0.032,286.2
2023-01-06T05:34:03,42.805,6.029,-0.03,0.009,-0.019,101.0,101.0,101.0,13.4,1505.2,328.1,-0.7,1.8,2471.274,13.29,0.031,286.7
2023-01-06T05:37:02,42.805,6.029,-0.024,-0.006,-0.021,101.0,102.0,101.0,13.4,1505.2,320.4,-0.8,1.8,2471.271,13.29,0.024,256.0
2023-01-06T05:40:03,42.805,6.029,-0.025,0.002,0.013,100.0,102.0,101.0,13.4,1505.2,329.9,-0.8,1.8,2471.293,13.29,0.025,274.6
2023-01-06T05:43:03,42.805,6.029,-0.025,0.007,-0.003,102.0,101.0,101.0,13.4,1505.2,328.6,-0.8,1.8,2471.27,13.29,0.025,285.6
2023-01-06T05:46:03,42.805,6.029,-0.051,0.016,0.015,101.0,101.0,101.0,13.3,1505.2,319.7,-0.8,1.8,2471.266,13.29,0.053,287.4
2023-01-06T05:49:03,42.805,6.029,-0.039,0.022,0.013,102.0,101.0,101.0,13.4,1505.2,328.6,-0.8,1.8,2471.278,13.29,0.044,299.4
2023-01-06T05:52:03,42.805,6.029,-0.035,0.009,-0.003,101.0,101.0,102.0,13.4,1505.2,331.4,-0.8,1.8,2471.276,13.29,0.036,284.4
2023-01-06T05:55:03,42.805,6.029,-0.015,0.007,-0.02,102.0,101.0,100.0,13.4,1505.2,332.2,-0.7,1.8,2471.282,13.29,0.016,295.0
2023-01-06T05:58:03,42.805,6.029,-0.05,0.013,-0.022,102.0,103.0,101.0,13.3,1505.2,335.0,-0.7,1.8,2471.263,13.29,0.051,284.6
2023-01-06T06:04:02,42.805,6.029,-0.01,-0.005,-0.01,101.0,101.0,101.0,13.4,1505.2,320.3,-0.8,1.8,2471.311,13.29,0.011,243.4
2023-01-06T06:07:03,42.805,6.029,-0.027,0.008,-0.002,102.0,100.0,101.0,13.4,1505.2,329.0,-0.8,1.8,2471.316,13.29,0.028,286.5
2023-01-06T06:10:03,42.805,6.029,-0.001,0.015,0.017,100.0,101.0,102.0,13.3,1505.2,331.1,-0.8,1.8,2471.348,13.29,0.015,356.2
2023-01-06T06:13:03,42.805,6.029,-0.023,0.01,-0.008,101.0,101.0,101.0,13.3,1505.2,316.6,-0.8,1.8,2471.309,13.29,0.025,293.5
2023-01-06T06:16:03,42.805,6.029,-0.029,-0.013,-0.031,101.0,102.0,101.0,13.4,1505.2,325.3,-0.8,1.8,2471.296,13.29,0.031,245.9
2023-01-06T06:19:03,42.805,6.029,-0.015,-0.009,-0.019,101.0,102.0,101.0,13.4,1505.2,331.4,-0.7,1.8,2471.295,13.29,0.017,239.0
2023-01-06T06:22:03,42.805,6.029,-0.046,0.032,0.041,101.0,102.0,100.0,13.4,1505.2,321.8,-0.8,1.8,2471.313,13.29,0.056,304.8
2023-01-06T06:25:03,42.805,6.029,-0.026,0.012,0.028,102.0,99.0,101.0,13.3,1505.2,331.1,-0.8,1.8,2471.292,13.29,0.028,294.8
2023-01-06T06:28:03,42.805,6.029,-0.032,0.011,-0.003,100.0,101.0,102.0,13.4,1505.2,323.1,-0.8,1.8,2471.303,13.29,0.033,289.0
2023-01-06T06:31:03,42.805,6.029,-0.032,-0.005,-0.048,102.0,100.0,101.0,13.3,1505.2,333.8,-0.7,1.8,2471.309,13.29,0.032,261.1
2023-01-06T06:34:03,42.805,6.029,-0.02,-0.004,-0.021,101.0,102.0,102.0,13.4,1505.2,322.1,-0.8,1.8,2471.284,13.29,0.02,258.7
2023-01-06T06:37:03,42.805,6.029,-0.042,0.0,0.004,102.0,101.0,102.0,13.4,1505.2,323.9,-0.8,1.8,2471.252,13.29,0.042,270.0
2023-01-06T06:40:03,42.805,6.029,-0.022,0.006,0.003,102.0,102.0,101.0,13.4,1505.2,327.0,-0.7,1.8,2471.29,13.29,0.022,285.3
2023-01-06T06:43:03,42.805,6.029,-0.028,0.006,-0.002,102.0,102.0,101.0,13.4,1505.2,329.9,-0.7,1.8,2471.254,13.29,0.028,282.1
2023-01-06T06:46:03,42.805,6.029,-0.051,0.002,-0.027,102.0,102.0,101.0,13.3,1505.2,333.4,-0.8,1.8,2471.279,13.29,0.051,272.2
2023-01-06T06:49:03,42.805,6.029,-0.031,-0.009,-0.017,102.0,102.0,101.0,13.4,1505.2,325.8,-0.7,1.8,2471.283,13.29,0.032,253.8
2023-01-06T06:52:03,42.805,6.029,-0.029,0.0,0.005,101.0,102.0,101.0,13.4,1505.2,318.3,-0.8,1.8,2471.267,13.29,0.028,270.0
2023-01-06T06:55:03,42.805,6.029,-0.023,-0.009,-0.05,104.0,102.0,101.0,13.4,1505.2,328.4,-0.8,1.8,2471.296,13.29,0.024,248.6
2023-01-06T06:58:03,42.805,6.029,-0.015,-0.001,-0.003,101.0,102.0,101.0,13.4,1505.2,325.2,-0.7,1.8,2471.306,13.29,0.015,266.2
2023-01-06T07:04:03,42.805,6.029,-0.008,-0.011,-0.004,102.0,102.0,101.0,13.4,1505.2,330.5,-0.8,1.8,2471.349,13.29,0.013,216.0
2023-01-06T07:07:03,42.805,6.029,-0.035,0.004,-0.009,101.0,101.0,101.0,13.4,1505.2,322.2,-0.8,1.8,2471.345,13.29,0.035,276.5
2023-01-06T07:10:03,42.805,6.029,-0.012,0.015,0.026,102.0,103.0,101.0,13.4,1505.2,329.9,-0.8,1.8,2471.332,13.29,0.019,321.3
2023-01-06T07:13:03,42.805,6.029,-0.021,-0.013,-0.031,101.0,100.0,101.0,13.3,1505.2,319.4,-0.7,1.8,2471.344,13.29,0.024,238.2
2023-01-06T07:16:03,42.805,6.029,-0.041,0.017,-0.018,101.0,100.0,102.0,13.4,1505.2,336.2,-0.8,1.8,2471.312,13.29,0.044,292.5
2023-01-06T07:19:03,42.805,6.029,-0.022,0.004,0.042,100.0,101.0,101.0,13.4,1505.2,331.0,-0.7,1.8,2471.357,13.29,0.022,280.3
2023-01-06T07:22:03,42.805,6.029,0.003,0.011,0.038,102.0,100.0,101.0,13.4,1505.2,318.4,-0.7,1.8,2471.309,13.29,0.011,15.3
2023-01-06T07:25:03,42.805,6.029,-0.011,-0.019,-0.02,101.0,100.0,103.0,13.4,1505.2,329.8,-0.7,1.8,2471.322,13.29,0.021,210.1
2023-01-06T07:28:03,42.805,6.029,-0.018,0.02,-0.004,101.0,102.0,102.0,13.4,1505.2,327.4,-0.8,1.8,2471.318,13.29,0.026,318.0
2023-01-06T07:31:03,42.805,6.029,-0.001,0.01,0.01,100.0,102.0,101.0,13.4,1505.2,325.1,-0.8,1.8,2471.335,13.29,0.01,354.3
2023-01-06T07:34:03,42.805,6.029,-0.033,0.05,0.006,101.0,102.0,101.0,13.4,1505.2,334.5,-0.8,1.8,2471.316,13.29,0.059,326.6
2023-01-06T07:37:03,42.805,6.029,-0.037,0.009,0.0,101.0,102.0,102.0,13.4,1505.2,333.0,-0.8,1.8,2471.328,13.29,0.038,283.7
2023-01-06T07:40:03,42.805,6.029,-0.024,0.005,0.013,101.0,101.0,101.0,13.3,1505.2,316.9,-0.8,1.8,2471.294,13.29,0.024,281.8
2023-01-06T07:43:03,42.805,6.029,-0.011,0.003,-0.009,101.0,101.0,101.0,13.3,1505.2,323.1,-0.8,1.8,2471.315,13.29,0.011,285.3
2023-01-06T07:46:03,42.805,6.029,-0.014,0.003,0.004,102.0,101.0,103.0,13.3,1505.2,324.4,-0.8,1.8,2471.278,13.29,0.014,282.1
2023-01-06T07:49:03,42.805,6.029,-0.019,0.011,0.005,99.0,101.0,101.0,13.4,1505.2,327.1,-0.8,1.8,2471.32,13.29,0.021,300.1
2023-01-06T07:52:03,42.805,6.029,-0.023,0.01,-0.021,101.0,101.0,101.0,13.4,1505.2,321.4,-0.8,1.8,2471.29,13.29,0.025,293.5
2023-01-06T07:55:03,42.805,6.029,-0.042,-0.003,-0.006,102.0,101.0,101.0,13.4,1505.2,323.9,-0.8,1.8,2471.279,13.29,0.042,265.9
2023-01-06T07:58:03,42.805,6.029,-0.034,0.007,-0.028,100.0,101.0,101.0,13.4,1505.2,335.0,-0.7,1.8,2471.34,13.29,0.034,281.6
2023-01-06T08:04:03,42.805,6.029,-0.029,-0.004,0.011,102.0,102.0,101.0,13.4,1505.2,327.9,-0.8,1.8,2471.337,13.29,0.029,262.2
2023-01-06T08:07:03,42.805,6.029,-0.017,0.0,-0.008,101.0,102.0,102.0,13.4,1505.2,326.5,-0.7,1.8,2471.319,13.29,0.017,270.0
2023-01-06T08:10:03,42.805,6.029,-0.018,0.012,-0.002,100.0,101.0,101.0,13.4,1505.2,331.2,-0.8,1.8,2471.35,13.29,0.021,303.7
2023-01-06T08:13:03,42.805,6.029,-0.019,-0.007,-0.023,100.0,103.0,100.0,13.4,1505.2,322.6,-0.7,1.8,2471.341,13.29,0.02,249.8
2023-01-06T08:16:03,42.805,6.029,-0.037,0.016,0.025,101.0,101.0,101.0,13.3,1505.2,323.7,-0.8,1.8,2471.357,13.29,0.04,293.4
2023-01-06T08:19:03,42.805,6.029,-0.026,0.009,-0.003,102.0,101.0,103.0,13.4,1505.2,319.9,-0.8,1.8,2471.291,13.29,0.027,289.1
2023-01-06T08:22:03,42.805,6.029,-0.017,-0.004,0.012,100.0,102.0,101.0,13.4,1505.2,323.9,-0.8,1.8,2471.352,13.29,0.017,256.8
2023-01-06T08:25:03,42.805,6.029,-0.013,0.0,0.017,102.0,101.0,102.0,13.4,1505.2,323.9,-0.8,1.8,2471.327,13.29,0.013,270.0
2023-01-06T08:28:03,42.805,6.029,-0.012,0.008,-0.002,103.0,100.0,101.0,13.4,1505.2,328.8,-0.7,1.8,2471.297,13.29,0.014,303.7
2023-01-06T08:31:03,42.805,6.029,0.007,0.006,-0.006,101.0,101.0,101.0,13.4,1505.2,324.4,-0.7,1.8,2471.291,13.29,0.009,49.4
2023-01-06T08:34:03,42.805,6.029,-0.035,0.01,-0.001,101.0,102.0,101.0,13.4,1505.2,324.0,-0.8,1.8,2471.302,13.29,0.036,285.9
2023-01-06T08:37:03,42.805,6.029,-0.018,0.0,-0.011,101.0,101.0,101.0,13.4,1505.2,330.8,-0.7,1.8,2471.319,13.29,0.018,270.0
2023-01-06T08:40:03,42.805,6.029,-0.028,0.015,0.007,101.0,102.0,101.0,13.4,1505.2,317.6,-0.8,1.8,2471.302,13.29,0.031,298.2
2023-01-06T08:43:03,42.805,6.029,-0.019,0.001,0.006,105.0,101.0,102.0,13.4,1505.2,318.0,-0.7,1.8,2471.325,13.29,0.019,273.0
2023-01-06T08:46:03,42.805,6.029,-0.019,0.024,-0.007,100.0,101.0,101.0,13.3,1505.2,334.9,-0.7,1.8,2471.263,13.29,0.03,321.6
2023-01-06T08:49:03,42.805,6.029,-0.053,0.026,0.004,101.0,101.0,101.0,13.4,1505.2,334.9,-0.7,1.8,2471.299,13.29,0.059,296.1
2023-01-06T08:52:03,42.805,6.029,0.009,-0.011,-0.01,101.0,101.0,101.0,13.4,1505.2,325.5,-0.8,1.8,2471.266,13.29,0.014,140.7
2023-01-06T08:55:03,42.805,6.029,-0.028,0.012,-0.009,101.0,101.0,102.0,13.3,1505.2,322.3,-0.7,1.8,2471.308,13.29,0.03,293.2
2023-01-06T08:58:03,42.805,6.029,-0.016,0.01,0.023,102.0,100.0,102.0,13.3,1505.2,333.0,-0.7,1.8,2471.291,13.29,0.018,302.0
2023-01-06T09:04:03,42.805,6.029,0.0,0.004,-0.001,101.0,102.0,101.0,13.4,1505.2,320.4,-0.8,1.8,2471.338,13.29,0.004,0.0
2023-01-06T09:07:03,42.805,6.029,-0.023,0.0,0.02,101.0,101.0,101.0,13.3,1505.2,336.9,-0.7,1.8,2471.306,13.29,0.023,270.0
2023-01-06T09:10:03,42.805,6.029,-0.012,0.018,0.02,101.0,102.0,101.0,13.3,1505.2,333.0,-0.8,1.8,2471.353,13.29,0.021,326.3
2023-01-06T09:13:03,42.805,6.029,-0.039,0.01,-0.001,102.0,100.0,102.0,13.3,1505.2,337.0,-0.8,1.8,2471.324,13.29,0.04,284.4
2023-01-06T09:16:03,42.805,6.029,-0.002,0.036,0.033,101.0,102.0,101.0,13.4,1505.2,330.6,-0.7,1.8,2471.333,13.29,0.036,356.8
2023-01-06T09:19:03,42.805,6.029,-0.004,-0.015,-0.037,102.0,101.0,101.0,13.4,1505.2,319.2,-0.7,1.9,2471.304,13.29,0.015,194.9
2023-01-06T09:22:03,42.805,6.029,-0.018,0.019,0.022,102.0,101.0,101.0,13.4,1505.2,323.1,-0.7,1.8,2471.268,13.29,0.026,316.5
2023-01-06T09:25:03,42.805,6.029,-0.001,0.013,-0.003,102.0,101.0,101.0,13.4,1505.2,322.6,-0.8,1.8,2471.281,13.29,0.013,355.6
2023-01-06T09:28:03,42.805,6.029,-0.019,0.038,0.033,102.0,101.0,101.0,13.4,1505.2,331.4,-0.8,1.8,2471.268,13.29,0.042,333.4
2023-01-06T09:31:03,42.805,6.029,-0.036,0.001,-0.031,102.0,100.0,101.0,13.4,1505.2,334.1,-0.8,1.8,2471.265,13.29,0.036,271.6
2023-01-06T09:34:03,42.805,6.029,-0.034,0.037,-0.002,101.0,102.0,100.0,13.3,1505.2,334.5,-0.8,1.8,2471.242,13.29,0.05,317.4
2023-01-06T09:37:03,42.805,6.029,-0.029,0.01,0.007,101.0,101.0,102.0,13.3,1505.2,330.0,-0.8,1.8,2471.305,13.29,0.03,289.0
2023-01-06T09:40:03,42.805,6.029,-0.022,-0.004,-0.013,102.0,101.0,101.0,13.4,1505.2,322.5,-0.8,1.8,2471.267,13.29,0.022,259.7
2023-01-06T09:43:03,42.805,6.029,-0.032,0.0,-0.032,101.0,102.0,102.0,13.4,1505.2,329.7,-0.7,1.8,2471.281,13.29,0.032,270.0
2023-01-06T09:46:03,42.805,6.029,-0.03,0.027,-0.006,103.0,100.0,101.0,13.3,1505.2,333.8,-0.7,1.8,2471.279,13.29,0.04,312.0
2023-01-06T09:49:03,42.805,6.029,-0.013,0.012,-0.018,101.0,103.0,101.0,13.4,1505.2,332.2,-0.8,1.8,2471.282,13.29,0.017,312.7
2023-01-06T09:52:03,42.805,6.029,-0.028,0.006,-0.004,102.0,101.0,101.0,13.3,1505.2,321.8,-0.7,1.8,2471.304,13.29,0.028,282.1
2023-01-06T09:55:03,42.805,6.029,-0.026,0.011,-0.001,101.0,101.0,101.0,13.3,1505.2,321.5,-0.7,1.8,2471.271,13.29,0.028,292.9